Regional Weather Roundup
Issued by NWS Charleston, SC

Current Version | Previous Version | Graphics & Text | Print | Product List | Glossary On
Versions: 1 2 3 4 5 6 7 8 9 10 11 12 13 14 15 16 17 18 19 20 21 22 23 24 25 26 27 28 29 30 31 32 33 34 35 36 37 38 39 40 41 42 43 44 45 46 47 48 49 50
000 ASUS42 KCHS 300011 RWRCHS REGIONAL WEATHER ROUNDUP NATIONAL WEATHER SERVICE CHARLESTON SC 700 PM EST THU JAN 29 2015 NOTE: "FAIR" INDICATES FEW OR NO CLOUDS BELOW 12,000 FEET WITH NO SIGNIFICANT WEATHER AND/OR OBSTRUCTIONS TO VISIBILITY. NOT ALL STATIONS ARE QUALITY CONTROLLED BY THE NATIONAL WEATHER SERVICE. USE DATA WITH CAUTION...ESPECIALLY DEWPOINT OBSERVATIONS. SCZ027-030-031-034>040-042>050-300100- ...SOUTHEAST SOUTH CAROLINA... CITY SKY/WX TMP DP RH WIND PRES REMARKS N CHARLESTON MOCLDY 49 39 68 S7 30.20S 6HR MIN TEMP: 48; 6HR MAX TEMP: 58; WATERFRONT PRK NOT AVBL MOUNT PLEASANT FAIR 46 39 76 CALM 30.20S PINOPOLIS N/A 54 37 54 VRB3 30.09F MONCKS CORNER FAIR 50 39 66 S6 30.18F SUMMERVILLE FAIR 50 41 71 S5 30.19F BEAUFORT MCAS CLOUDY 50 43 77 S6 30.19F 6HR MIN TEMP: 50; 6HR MAX TEMP: 59; BEAUFORT ARPT FAIR 48 45 87 CALM 30.19F HILTON HEAD IS MOCLDY 48 45 87 SE5 30.20F WALTERBORO CLOUDY 52 37 58 S5 30.19S ALLENDALE FAIR 50 37 62 S3 30.16S ...SOUTHERN MIDLANDS AND PEE DEE... CITY SKY/WX TMP DP RH WIND PRES REMARKS GEORGETOWN NOT AVBL KINGSTREE NOT AVBL ORANGEBURG CLOUDY 51 31 46 S6 30.16R 6HR MIN TEMP: 51; 6HR MAX TEMP: 57; 6HR PCP: TRACE; BARNWELL FAIR 54 34 47 S3 30.16S AIKEN FAIR 50 28 43 S5 30.16F MANNING MOCLDY 54 -4 9 S5 30.17R COLUMBIA MOCLDY 51 26 37 S5 30.13F 6HR MIN TEMP: 51; 6HR MAX TEMP: 57; 6HR PCP: TRACE; SUMTER MOCLDY 48 27 43 SW2 30.13F 6HR MIN TEMP: 48; 6HR MAX TEMP: 56; 6HR PCP: TRACE; FLORENCE CLOUDY 49 28 44 S5 30.14F 6HR MIN TEMP: 49; 6HR MAX TEMP: 56; MYRTLE BEACH CLEAR 48 36 61 S12 30.19F N MYRTLE BEACH MOCLDY 50 37 61 S13 30.16F 6HR MIN TEMP: 46; 6HR MAX TEMP: 50; $$ GAZ063-065-086>088-099>101-113>116-118-119-134>141-150-300100- ...SOUTHEAST GEORGIA... CITY SKY/WX TMP DP RH WIND PRES REMARKS SAVANNAH ARPT CLOUDY 51 42 71 S9 30.20F 6HR MIN TEMP: 51; 6HR MAX TEMP: 60; HUNTER AAF CLOUDY 51 45 80 S6 30.18F 6HR MIN TEMP: 51; 6HR MAX TEMP: 59; FORT STEWART PTCLDY 55 42 63 S6 30.18F 6HR MIN TEMP: 53; 6HR MAX TEMP: 63; STATESBORO MOCLDY 51 37 58 CALM 30.17F SYLVANIA MOCLDY 52 38 59 CALM 30.18S CLAXTON FAIR 50 41 71 CALM 30.18F ...CSRA...CENTRAL AND FAR SOUTHEAST GEORGIA... CITY SKY/WX TMP DP RH WIND PRES REMARKS THOMSON MOCLDY 54 32 43 S3 30.18S AUGUSTA-BUSH MOCLDY 52 29 41 S7 30.14F 6HR MIN TEMP: 51; 6HR MAX TEMP: 58; 6HR PCP: TRACE; AUGUSTA-DANIEL MOCLDY 54 27 35 S7 30.14F SWAINSBORO FAIR 55 16 21 S3 30.17S VIDALIA PTCLDY 52 37 58 S5 30.18S EASTMAN FAIR 53 32 45 SW3 30.20S HAZLEHURST FAIR 53 37 53 CALM 30.18S ALMA CLEAR 49 40 71 S3 30.20F 6HR MIN TEMP: 49; 6HR MAX TEMP: 63; WAYCROSS CLEAR 53 44 72 S5 30.21S JESUP FAIR 52 46 82 CALM 30.21S BAXLEY FAIR 52 41 66 CALM 30.19S BRUNSWICK CLEAR 54 45 71 CALM 30.23S SAINT SIMONS PTCLDY 52 47 83 SE5 30.22F 6HR MIN TEMP: 51; 6HR MAX TEMP: 58; $$ SCZ027-028-034-036>038-045-046-048>050-GAZ119-141-300100- ...LAKE AND SUPPLEMENTAL COASTAL OBSERVATIONS... STATION/POSITION TIME TEMP WIND PRES WAVE SWELL AIR SEA DIR/SP/G HT/PER HT/PER/DIR (UTC) (F) (DEG/KT/KT) (MB) (FT/S) (FT/S/D) UPR LAKE MARION NOT AVBL WINYAH BAY NOT AVBL LAKE MURRAY 2300 52 190/ 7/ 9 1020.0F ACE BASIN NERRS NOT AVBL FORT PULASKI 2300 51 52 130/ 3/ 4 1023.6F SAPELO ISLAND 2300 53 120/ 1 1023.0S $$ ANZ835-935-AMZ111-154-330-350-352-354-370-450-454-472-300100- ...C-MAN AND BUOY OBSERVATIONS... STATION/POSITION TIME TEMP WIND PRES WAVE SWELL AIR SEA DIR/SP/G HT/PER HT/PER/DIR (UTC) (F) (DEG/KT/KT) (MB) (FT/S) (FT/S/D) BUOY 41004 2350 60 68 190/ 14/ 16 1022.4F 3/10 3/10 BUOY 41008 2350 53 54 130/ 6/ 6 1023.3F 2/ 8 2/ 70/ 8 FOLLY BEACH CMAN 0000 51 170/ 7/ 8 1022.9F CAPERS NEARSHORE 2300 50 180/ 2/ 4 N/A FRIPP NEARSHORE 2300 52 170/ 8/ 10 1022.2F STATION/POSITION TIME TEMP WIND PRES WAVE SWELL AIR SEA DIR/SP/G HT/PER HT/PER/DIR (UTC) (F) (DEG/KT/KT) (MB) (FT/S) (FT/S/D) 5E ST. MARYS GA 2321 57 N/A 3/12 2/ 90/12 FRYING PAN BUOY 2350 57 67 220/ 12/ 16 1023.5F 3/ 9 2/ 70/ 9 BUOY 41025 2350 45 71 230/ 6/ 8 1023.0F 5/10 5/ 50/10 CAPE LOOKOUT NC 2300 43 200/ 4/ 5 1023.3F BUOY 41002 2350 58 72 280/ 6/ 8 1024.9R 6/10 7/ 20/10 BUOY 41010 2320 64 75 150/ 2/ 6 1024.6R ST AUGUSTINE FL 0000 58 80/ 1/ 2 1024.8R $$

USA.gov is the U.S. government's official web portal to all federal, state and local government web resources and services.